KI5QWQ Weather Reports


time (UTC)temp
F
wind
direction
speed
knots
gust
knots
rain 1hr
in
rain 24hr
in
rain mn
in
humidity
%
barometer
mb
20260504035509 0 131 0.9 0.9 0.00 0.00 0.00 1020.5
20260504035005 0 130 0.0 0.9 0.00 0.00 0.00 1020.4
20260504034503 0 89 0.0 1.7 0.00 0.00 0.00 1020.7
20260504034000 0 205 0.0 0.9 0.00 0.00 0.00 1020.7
20260504033457 0 224 0.0 0.9 0.00 0.00 0.00 1020.6
20260504032955 0 126 0.0 0.9 0.00 0.00 0.00 1020.3
20260504032452 0 125 0.0 1.7 0.00 0.00 0.00 1020.3
20260504031948 0 150 0.0 1.7 0.00 0.00 0.00 1020.3
20260504031445 0 224 0.0 0.9 0.00 0.00 0.00 1020.5
20260504030942 0 50 0.0 1.7 0.00 0.00 0.00
20260504030439 0 104 0.0 1.7 0.00 0.00 0.00
20260504025935 0 142 0.0 1.7 0.00 0.00 0.00
20260504025432 0 154 0.0 0.0 0.00 0.00 0.00
20260504024929 0 217 0.0 1.7 0.00 0.00 0.00
20260504024426 0 89 0.0 0.9 0.00 0.00 0.00
20260504023923 0 199 0.0 1.7 0.00 0.00 0.00
20260504023419 0 163 0.0 0.9 0.00 0.00 0.00
20260504022915 0 219 0.0 0.9 0.00 0.00 0.00
20260504022412 0 135 0.0 0.9 0.00 0.00 0.00
20260504021908 0 235 0.0 0.9 0.00 0.00 0.00 1019.5
20260504021406 0 117 0.0 0.9 0.00 0.00 0.00 1019.5
20260504020903 0 136 0.0 0.9 0.00 0.00 0.00 1019.5
20260504020359 0 217 0.0 0.9 0.00 0.00 0.00 1019.5
20260504015855 0 117 0.0 0.9 0.00 0.00 0.00 1019.5
20260504015352 0 212 0.0 0.9 0.00 0.00 0.00 1019.5
20260504014848 0 117 0.0 0.9 0.00 0.00 0.00 1019.5
20260504014344 0 297 0.0 0.9 0.00 0.00 0.00 1019.5
20260504013842 0 245 0.0 0.9 0.00 0.00 0.00 1019.5
20260504013339 0 309 0.0 0.9 0.00 0.00 0.00 1019.5
20260504012836 0 142 0.0 0.9 0.00 0.00 0.00 1019.5
20260504012334 0 164 0.0 0.0 0.00 0.00 0.00 1019.5
20260504011831 0 124 0.0 0.9 0.00 0.00 0.00 1019.2
20260504011327 0 173 0.0 0.9 0.00 0.00 0.00 1019.2
20260504010823 0 235 0.0 0.9 0.00 0.00 0.00 1019.2
20260504010319 0 205 0.0 0.9 0.00 0.00 0.00 1019.2
20260504005816 0 230 0.0 5.2 0.00 0.00 0.00 1019.2
20260504005313 0 148 1.7 3.5 0.00 0.00 0.00 1019.2
20260504004810 0 256 0.0 0.9 0.00 0.00 0.00 1019.2
20260504004308 0 227 0.9 1.7 0.00 0.00 0.00 1019.5
20260504003804 0 222 0.9 2.6 0.00 0.00 0.00 1019.5
20260504003301 0 196 0.0 3.5 0.00 0.00 0.00 1019.5
20260504002757 0 185 0.0 1.7 0.00 0.00 0.00 1019.5
20260504002255 0 186 0.0 0.9 0.00 0.00 0.00 1019.9
20260504001752 0 169 0.9 2.6 0.00 0.00 0.00 1019.9
20260504001249 0 119 0.9 2.6 0.00 0.00 0.00 1019.9
20260504000746 0 192 0.0 2.6 0.00 0.00 0.00 1019.9
20260504000243 0 195 0.0 4.3 0.00 0.00 0.00 1019.9
20260503235741 0 217 0.0 3.5 0.00 0.00 0.00
20260503235238 0 217 0.0 4.3 0.00 0.00 0.00
20260503234735 0 224 0.0 1.7 0.00 0.00 0.00
20260503234233 0 192 0.0 1.7 0.00 0.00 0.00
20260503233730 0 201 1.7 2.6 0.00 0.00 0.00
20260503233226 0 196 1.7 2.6 0.00 0.00 0.00
20260503232723 0 170 0.0 2.6 0.00 0.00 0.00
20260503232220 0 161 0.0 4.3 0.00 0.00 0.00
20260503231719 0 228 0.0 1.7 0.00 0.00 0.00
20260503231215 0 227 0.0 5.2 0.00 0.00 0.00
20260503230711 0 218 0.9 2.6 0.00 0.00 0.00 1020.6
20260503230209 0 214 0.9 2.6 0.00 0.00 0.00 1020.6
20260503225706 0 214 1.7 4.3 0.00 0.00 0.00 1020.6
20260503225206 0 139 2.6 5.2 0.00 0.00 0.00 1020.6
20260503224703 0 202 0.0 1.7 0.00 0.00 0.00 1020.6
20260503224201 0 156 0.0 1.7 0.00 0.00 0.00 1020.6
20260503223659 0 206 1.7 3.5 0.00 0.00 0.00 1020.6
20260503223155 0 227 1.7 4.3 0.00 0.00 0.00 1020.6
20260503222652 0 123 1.7 4.3 0.00 0.00 0.00 1020.6
20260503222150 0 150 3.5 7.0 0.00 0.00 0.00 1020.6
20260503221648 0 294 1.7 6.1 0.00 0.00 0.00 1020.6
20260503221145 0 228 0.9 2.6 0.00 0.00 0.00 1020.6
20260503220642 0 215 0.0 7.0 0.00 0.00 0.00 1020.7
20260503220138 0 219 1.7 3.5 0.00 0.00 0.00 1020.6
20260503215636 0 237 0.9 1.7 0.00 0.00 0.00 1021.1
20260503215132 0 180 1.7 6.1 0.00 0.00 0.00 1021.1
20260503214631 0 224 0.0 2.6 0.00 0.00 0.00 1021.1
20260503214126 0 170 2.6 5.2 0.00 0.00 0.00 1021.1
20260503213620 0 209 2.6 2.6 0.00 0.00 0.00 1021.2
20260503213116 0 148 0.9 1.7 0.00 0.00 0.00 1021.3
20260503212614 0 96 0.0 3.5 0.00 0.00 0.00 1021.3
20260503212111 0 190 2.6 2.6 0.00 0.00 0.00 1021.8
20260503211609 0 151 1.7 3.5 0.00 0.00 0.00 1021.8
20260503211104 0 187 0.9 7.0 0.00 0.00 0.00 1021.8
20260503210601 0 263 2.6 3.5 0.00 0.00 0.00 1021.8
20260503210056 0 163 1.7 3.5 0.00 0.00 0.00 1021.8
20260503205553 0 151 4.3 12.2 0.00 0.00 0.00 1021.8
20260503205049 0 196 1.7 2.6 0.00 0.00 0.00 1022.2
20260503204547 0 185 2.6 7.8 0.00 0.00 0.00 1022.2
20260503204044 0 179 1.7 2.6 0.00 0.00 0.00 1022.4
20260503203541 0 208 0.9 4.3 0.00 0.00 0.00 1022.4
20260503203038 0 245 1.7 6.1 0.00 0.00 0.00 1022.4
20260503202536 0 188 4.3 7.0 0.00 0.00 0.00 1022.6
20260503202034 0 160 1.7 2.6 0.00 0.00 0.00 1022.7
20260503201532 0 218 0.9 3.5 0.00 0.00 0.00 1022.9
20260503201028 0 168 1.7 7.0 0.00 0.00 0.00 1022.9
20260503200524 0 182 1.7 7.0 0.00 0.00 0.00 1022.9
20260503200021 0 127 2.6 6.1 0.00 0.00 0.00 1022.9
20260503195519 0 233 1.7 6.1 0.00 0.00 0.00 1022.9
20260503195015 0 214 2.6 5.2 0.00 0.00 0.00 1022.9
20260503194513 0 171 3.5 7.0 0.00 0.00 0.00 1022.9
20260503194012 0 189 0.9 5.2 0.00 0.00 0.00 1023.3
20260503193509 0 104 0.9 2.6 0.00 0.00 0.00 1023.3
20260503193004 0 179 1.7 4.3 0.00 0.00 0.00 1023.2
20260503192501 0 224 0.9 2.6 0.00 0.00 0.00 1023.3
20260503191956 0 251 1.7 2.6 0.00 0.00 0.00 1023.3
20260503191454 0 180 1.7 4.3 0.00 0.00 0.00 1023.5
20260503190950 0 135 3.5 6.1 0.00 0.00 0.00 1023.5
20260503190447 0 166 4.3 6.1 0.00 0.00 0.00 1023.8
20260503185944 0 196 1.7 6.1 0.00 0.00 0.00 1023.7
20260503185441 0 245 0.0 4.3 0.00 0.00 0.00 1023.8
20260503184940 0 207 2.6 3.5 0.00 0.00 0.00 1023.9
20260503184437 0 257 1.7 2.6 0.00 0.00 0.00 1024.0
20260503183933 0 215 1.7 10.4 0.00 0.00 0.00 1024.2
20260503183430 0 207 1.7 3.5 0.00 0.00 0.00 1024.3
20260503182927 0 178 0.9 3.5 0.00 0.00 0.00 1024.3
20260503182426 0 236 1.7 3.5 0.00 0.00 0.00 1024.4
20260503181923 0 205 2.6 5.2 0.00 0.00 0.00 1024.6
20260503181420 0 210 1.7 5.2 0.00 0.00 0.00 1024.6
20260503180916 0 117 1.7 5.2 0.00 0.00 0.00 1024.6
20260503180414 0 219 1.7 2.6 0.00 0.00 0.00 1025.0
20260503175910 0 282 0.9 6.1 0.00 0.00 0.00 1024.9
20260503175409 0 160 3.5 5.2 0.00 0.00 0.00 1024.9
20260503174904 0 201 0.9 1.7 0.00 0.00 0.00 1025.1
20260503174403 0 9 0.0 6.1 0.00 0.00 0.00 1025.1
20260503173857 0 220 1.7 2.6 0.00 0.00 0.00 1025.2
20260503173354 0 237 1.7 2.6 0.00 0.00 0.00 1025.2
20260503172850 0 213 1.7 2.6 0.00 0.00 0.00 1025.3
20260503172348 0 334 0.9 2.6 0.00 0.00 0.00 1025.5
20260503171844 0 214 0.0 1.7 0.00 0.00 0.00 1025.6
20260503171341 0 232 0.9 3.5 0.00 0.00 0.00 1025.5
20260503170838 0 236 2.6 3.5 0.00 0.00 0.00 1025.6
20260503170335 0 197 0.0 2.6 0.00 0.00 0.00 1025.9
20260503150727 0 266 0.9 2.6 0.00 0.00 0.00 1026.4
20260503150223 0 276 0.9 2.6 0.00 0.00 0.00 1026.6
20260503140147 0 255 0.9 2.6 0.00 0.00 0.00 1026.2
20260503131117 0 172 0.0 1.7 0.00 0.00 0.00 1026.0
20260503130615 0 193 0.9 2.6 0.00 0.00 0.00 1026.0
20260503130112 0 97 0.0 1.7 0.00 0.00 0.00 1026.1
20260503110505 0 224 0.0 0.9 0.00 0.00 0.00 1024.9
20260503090350 0 63 0.0 0.9 0.00 0.00 0.00 1024.6
20260503081318 0 104 0.0 1.7 0.00 0.00 0.00 1024.5
20260503080814 0 38 0.0 1.7 0.00 0.00 0.00 1024.6
20260503080311 0 84 0.0 1.7 0.00 0.00 0.00 1024.6
20260503072748 0 59 0.0 1.7 0.00 0.00 0.00 1024.8
20260503072245 0 42 0.9 1.7 0.00 0.00 0.00 1024.5
20260503071741 0 92 0.9 1.7 0.00 0.00 0.00 1024.8
20260503071238 0 58 0.0 1.7 0.00 0.00 0.00 1024.6
20260503070734 0 340 0.0 1.7 0.00 0.00 0.00 1024.6
20260503070232 0 110 0.9 1.7 0.00 0.00 0.00 1024.9
20260503060157 0 62 0.0 1.7 0.00 0.00 0.00 1024.9
20260503054644 0 112 0.0 1.7 0.00 0.00 0.00 1025.0
20260503054141 0 89 0.0 0.9 0.00 0.00 0.00 1024.9
20260503053639 0 58 0.0 0.9 0.00 0.00 0.00 1025.0
20260503053138 0 32 0.0 0.9 0.00 0.00 0.00 1025.0
20260503052634 0 147 0.0 0.9 0.00 0.00 0.00 1025.2
20260503052130 0 147 0.0 0.9 0.00 0.00 0.00 1025.2
20260503051625 0 126 0.0 1.7 0.00 0.00 0.00 1025.1
20260503051124 0 35 0.0 1.7 0.00 0.00 0.00 1025.0
20260503050620 0 101 0.9 1.7 0.00 0.00 0.00 1025.0
20260503050116 0 82 0.0 1.7 0.00 0.00 0.00 1024.8
20260503045614 0 89 0.0 1.7 0.00 0.01 0.01 1024.9
20260503045111 0 89 0.0 1.7 0.00 0.01 0.01 1024.8
20260503044608 0 135 0.0 0.9 0.00 0.01 0.01 1024.8
20260503044105 0 230 0.0 1.7 0.00 0.01 0.01 1024.8
20260503043601 0 89 0.9 1.7 0.00 0.01 0.01 1024.7
20260503043058 0 84 0.0 1.7 0.00 0.01 0.01 1024.8
20260503042555 0 111 0.0 1.7 0.00 0.01 0.01 1024.6
20260503042051 0 127 0.9 1.7 0.00 0.01 0.01 1024.7
20260503041548 0 89 0.0 1.7 0.00 0.01 0.01 1024.5
20260503041046 0 93 0.0 1.7 0.00 0.01 0.01 1024.7
20260503040543 0 111 0.0 1.7 0.00 0.01 0.01 1024.8
20260503040040 0 57 0.0 1.7 0.00 0.01 0.01 1024.5